Regional Weather Roundup
Issued by NWS

Home | Current Version | Previous Version | Text Only | Print | Product List | Glossary On
Versions: 1 2 3 4 5 6 7 8 9 10 11 12 13 14 15 16 17 18 19 20 21 22 23 24 25 26 27 28 29 30 31 32 33 34 35 36 37 38 39 40 41 42 43 44 45 46 47 48 49 50
000
ASUS43 KDTX 272210
RWRMI
MICHIGAN HOURLY REGIONAL WEATHER ROUNDUP
NATIONAL WEATHER SERVICE DETROIT/PONTIAC MI
600 PM EDT SUN JUL 27 2014

NOTE: "FAIR" INDICATES FEW OR NO CLOUDS BELOW 12,000 FEET WITH NO
SIGNIFICANT WEATHER AND/OR OBSTRUCTION TO VISIBILITY.

MIZ047>049-052>055-059>063-066>070-074>076-081>083-272300-
SOUTHEAST LOWER MICHIGAN

CITY           SKY/WX    TMP DP  RH WIND       PRES   REMARKS
ADRIAN         LGT RAIN  76  62  62 NW14      29.64R
ALMA           RAIN      63  60  91 N9        29.67R
ANN ARBOR      PTSUNNY   69  64  84 N12       29.61S
BAD AXE        RAIN      61  58  91 N15       29.72R
DETROIT CITY   LGT RAIN  66  63  90 N9        29.63S
DETROIT        CLOUDY    72  65  78 N9        29.63R
FLINT          CLOUDY    66  57  72 N17G38    29.69R
GROSSE ILE     RAIN      73  66  78 N9        29.61R
HILLSDALE      CLOUDY    69  65  87 W7        29.67R
HOWELL         PTSUNNY   70  65  83 NW3       29.62F

CITY           SKY/WX    TMP DP  RH WIND       PRES   REMARKS
JACKSON        PTSUNNY   71  65  81 CALM      29.63R
LAMBERTVILLE   PTSUNNY   77  70  78 SW12G18   29.60S
LANSING        TSTM      77  62  59 W15G21    29.64R
LAPEER         NOT AVBL
MASON          LGT RAIN  71  64  77 CALM      29.62S
MONROE         PTSUNNY   77  64  65 SW7       29.57S
MT. CLEMENS    TSTM      64  61  88 E7        29.62S
PONTIAC        PTSUNNY  N/A N/A N/A NW6       29.63R
PORT HOPE        N/A     63  62  97 VRB6      29.68R
PORT HURON     LGT RAIN  72  68  88 S12       29.59S
TRI CITIES     LGT RAIN  63  59  87 NE16      29.67S
YPSILANTI      PTSUNNY   74  60  61 NE13      29.63R
$$
MIZ043>046-050>051-056>058-064>065-071>073-077>080-272300-
SOUTHWEST LOWER MICHIGAN

CITY           SKY/WX    TMP DP  RH WIND       PRES   REMARKS
BATTLE CREEK   PTSUNNY   68  61  78 W9        29.68F
BENTON HARBOR  MOSUNNY   70  59  68 VRB7      29.71R
BIG RAPIDS     PTSUNNY   66  58  76 N12G18    29.70R
COLDWATER      PTSUNNY   77  65  65 SW9       29.65R
HOLLAND        PTSUNNY   69  62  78 NW12G22   29.71R
GRAND RAPIDS   LGT RAIN  75  66  73 W23G32    29.68R
KALAMAZOO      HVY RAIN  68  63  84 NW8G24    29.70R
MARSHALL       LGT RAIN  64  60  87 NW9G17    29.67R
MUSKEGON       CLOUDY    70  62  76 W12       29.69R
$$
MIZ016>042-272300-
NORTHERN LOWER MICHIGAN

CITY           SKY/WX    TMP DP  RH WIND       PRES   REMARKS
ALPENA         CLOUDY    65  62  90 N7        29.70R
BEAVER ISLAND  CLOUDY    64  62  94 N9G16     29.76R
BELLAIRE       CLOUDY    70  62  77 N6        29.70R
CADILLAC       RAIN      61  60  97 SE3       29.72R
CHARLEVOIX     CLOUDY    67  63  85 N7        29.76R
FRANKFORT      CLOUDY    69  62  79 NE8G16    29.71R
GAYLORD        CLOUDY    65  61  87 NE6       29.73R
GRAYLING       CLOUDY    64  63  97 SE3       29.72R
HARBOR SPRINGS CLOUDY    69  59  72 NE12      29.72R
HOUGHTON LAKE  CLOUDY    63  60  90 NE6       29.70R
MANISTEE       PTSUNNY   70  63  78 N7        29.69R
OSCODA         LGT RAIN  63  61  93 SE6       29.65F
PELLSTON       CLOUDY    67  61  81 NE14      29.74R
TRAVERSE CITY  CLOUDY    67  61  81 NE5       29.70R THUNDER
$$
MIZ007>008-015-272300-
EASTERN UPPER MICHIGAN

CITY           SKY/WX    TMP DP  RH WIND       PRES   REMARKS
KINROSS        CLOUDY    66  63  88 N6        29.76R
MACKINAC ISLAN CLOUDY    63  63 100 N5        29.75R
NEWBERRY       CLOUDY    62  54  74 NW9G18    29.79R
S. S. MARIE    PTSUNNY   70  56  61 VRB5      29.75S
$$
MIZ004>006-011>014-085-272300-
CENTRAL UPPER MICHIGAN

CITY           SKY/WX    TMP DP  RH WIND       PRES   REMARKS
MANISTIQUE     CLOUDY    61  55  82 N10       29.78S
ESCANABA       CLOUDY    61  52  72 N10G24    29.81R
MENOMINEE      CLOUDY    64  57  77 N20G31    29.79R
$$
MIZ001>003-009>011-084-272300-
WESTERN UPPER MICHIGAN

CITY           SKY/WX    TMP DP  RH WIND       PRES   REMARKS
IRON MOUNTAIN  PTSUNNY   64  52  64 N21G28    29.87R
HOUGHTON       SUNNY     66  50  56 N10       29.94R
COPPER HARBOR    N/A     57  50  77 N14       29.92R
IRONWOOD       CLOUDY    61  54  77 NE6       29.97R
$$

ABBREVIATIONS USED IN REMARKS
   TC - TEMPERATURE IN CELSIUS
  WCI - WIND CHILL INDEX
   HX - HEAT INDEX
  VSB - VISIBILITY



USA.gov is the U.S. government's official web portal to all federal, state and local government web resources and services.